DELTA 1 DEB, 3051

Orbit data source: Space-Track

DELTA 1 DEB, 3051 is space debris in SSO originally from a launch on Fri, 10 Nov 1967 UTC launched from the Air Force Western Test Range (AFWTR). Debris objects in space refer to the collection of defunct objects orbiting the Earth. Examples of debris include non-operational satellites, rocket bodies, and fragments generated from explosions, collisions, or faulty payload assembly.

Loading next visibility...
Identifier
3051, 1967-114C
Orbit
SSO
Country
Flag of USUS
Related business
Manufacturer
Unknown
Mission
Spacecraft
Bus & Motor
Unknown
Mass
Unknown
Launch date (UTC)
1967-11-10 (58 years ago)
Launch vehicle
Unknown
Launch site
Air Force Western Test Range (AFWTR)
Object type
Payload
Rocket body
Debris
Shape & HBR
Unknown shape, 0.1 m
Radar Cross Section
Small (<0.1 m²)

Expand to show TLE details & history
Last TLE update: 5 days ago

TLE from 5 days ago
0 DELTA 1 DEB
1 03051U 67114C   25297.41964850 -.00000025  00000-0  99611-4 0  9998
2 03051 101.1318 275.9603 0089017 232.5930 284.9863 12.62280854669512
Epoch: 2025-10-24T10:04Z
TLE epoch observation values (Epoch: 2025-10-24T10:04:17.630Z)
Latitude
22.96208°
Longitude
-83.41942°
Altitude
1,398.702 km
Speed
7.17 km/s
True Right ascension
06h 42m 52s
True Declination
22° 50' 56"
Sunlit
Object was in daylight at epoch
Visualization orbit readout
Latitude
Unknown
Longitude
Unknown
Altitude
Unknown
Speed
Unknown
Apparent Right ascension
Unknown
Apparent Declination
Unknown
Sunlit
N/A
Visualization observer readout
Local Sidereal Time
17:39:15
Azimuth
Unknown
Elevation
Unknown
Doppler factor
Unknown
Orbital elements
Apogee altitude
1,480.376 km
Perigee altitude
1,341.702 km
Semi-major axis
7,789.176 km
Eccentricity
0.0089
Inclination
101.1318°
RAAN
275.9603°
Arg. of periapsis
232.593°
True anomaly
283.99814°
Mean anomaly
284.9863°
Eccentric anomaly
284.4925°
Mean motion
3.15723 °/min
Orbital period
114.02 mins
BSTAR
0.000099611
Loading maneuver chart data...
Computing Atmospheric mass density...
Loading historical data...
Loading historical data...
Loading historical data...
Loading historical data...
Loading historical data...
Loading historical data...
Loading historical data...
Other satellites on launch #114 in the year 1967 (1967-11-10 UTC)

Documentation

Showing up to 5 results
|